Theta_e
317 318 319 321 322 326 324 323 322 321 320 320 318 317 315 314 313 312 313 314 314 315 315 316 317 316 304 293 293 306 315 313 307 306 300 297 294 292 288 288 289 287 288 290 291 290 290
314 316 317 318 320 322 324 324 323 322 322 320 319 318 316 315 314 313 313 313 314 314 315 316 316 316 299 287 302 303 304 305 305 301 299 297 294 295 291 289 289 288 290 290 290 289 289
311 313 315 315 318 319 324 324 324 323 322 321 320 318 317 316 315 314 314 314 314 314 315 315 315 306 295 292 300 301 303 301 303 300 297 298 298 294 292 288 292 290 287 287 285 286 287
309 309 313 314 315 316 318 322 323 323 322 321 320 319 318 317 316 315 315 314 314 314 315 314 312 299 290 301 300 301 302 300 302 302 300 299 299 296 293 292 289 286 285 281 284 287 287
307 307 309 312 313 314 315 317 321 322 322 320 319 318 318 317 317 316 315 314 315 315 313 312 298 294 289 305 297 299 301 298 300 299 299 301 297 291 290 285 281 282 278 279 284 287 287
306 307 307 309 310 311 313 314 316 318 321 320 319 318 318 318 317 316 315 315 313 309 306 303 298 290 293 291 297 299 300 301 297 296 296 294 290 287 286 281 278 279 279 280 281 284 285
306 306 306 306 308 308 309 312 313 315 316 320 319 318 318 318 317 316 308 302 296 294 295 291 290 290 292 296 299 296 299 299 297 292 285 290 285 282 284 283 283 283 281 281 282 284 283
306 306 305 305 306 306 307 309 311 313 314 315 319 319 319 318 318 315 306 297 297 295 290 295 293 293 295 297 291 294 299 293 291 285 288 287 282 285 285 285 284 281 280 280 283 284 284
306 306 306 304 305 305 305 306 308 310 311 312 314 317 318 318 317 310 303 301 304 301 291 293 294 293 293 295 290 291 296 293 288 286 286 283 284 287 287 285 284 282 281 281 282 284 283
307 306 306 304 304 304 304 304 306 308 308 309 311 313 316 317 309 307 303 307 305 300 285 289 290 292 294 294 289 296 297 292 288 286 286 285 287 287 284 284 285 281 284 283 282 280 278
307 305 305 304 304 304 303 303 304 306 307 308 308 310 313 315 307 304 307 306 305 300 279 288 289 296 294 290 290 291 297 292 286 286 286 282 284 283 283 284 285 282 285 282 282 281 279
307 306 304 305 304 303 304 302 302 305 304 305 306 308 309 309 308 306 305 304 301 287 278 282 287 288 288 289 289 291 293 294 291 287 284 282 287 286 284 285 285 286 285 284 282 280 272
307 307 305 305 304 304 303 302 302 304 304 304 305 306 307 310 304 307 304 300 285 282 284 281 282 286 286 285 287 288 287 286 285 280 277 283 283 285 286 283 285 283 280 271 272 270 273
306 306 306 305 304 304 303 303 302 302 303 303 303 305 306 308 308 307 302 291 281 278 279 285 285 284 282 286 285 286 284 282 285 283 278 280 277 284 285 283 283 281 280 274 269 272 275
305 305 306 306 305 304 303 303 302 301 301 302 302 302 306 307 307 306 296 284 283 282 285 284 284 281 281 284 284 284 282 281 284 285 281 279 280 284 285 285 284 282 278 281 274 268 273
303 304 305 306 305 304 303 303 302 300 301 300 294 299 302 307 307 301 289 287 283 287 288 286 281 282 278 281 281 282 282 285 284 286 287 282 276 281 284 285 284 281 283 277 275 270 270
302 303 304 305 305 305 304 303 302 300 300 300 295 294 303 306 304 294 284 285 286 289 289 285 282 282 282 281 282 280 282 284 286 285 288 282 282 279 282 281 282 282 277 279 280 278 272
300 301 302 304 305 305 304 303 302 301 301 298 292 286 303 304 288 286 285 285 292 289 292 290 287 285 283 283 281 282 281 283 285 287 283 286 282 274 278 282 283 282 281 282 278 274 273
298 299 301 302 304 305 305 304 302 301 300 293 288 290 300 300 284 284 286 289 290 288 287 289 288 287 287 284 282 283 284 285 286 286 285 286 278 270 275 279 281 280 281 282 283 280 273
297 298 299 301 302 304 305 304 303 301 301 294 288 283 288 294 292 287 285 286 286 290 289 289 288 289 288 285 287 283 283 286 287 286 293 289 278 277 275 279 280 277 280 281 281 272 275
297 297 298 300 301 302 305 304 303 302 300 292 288 279 280 283 286 287 287 285 286 286 290 290 288 286 286 282 283 284 286 285 286 288 286 287 277 273 275 281 280 281 279 279 277 280 277
296 296 297 299 300 300 301 304 303 302 301 292 285 283 284 275 288 287 286 282 284 285 286 285 284 287 286 283 285 283 286 285 284 284 283 284 276 274 273 277 280 278 280 280 279 278 280
295 296 297 298 299 299 299 304 303 302 300 290 291 287 286 281 283 285 284 282 284 286 285 288 287 286 287 289 289 292 293 292 291 285 282 283 277 276 273 274 278 276 278 282 281 281 283
295 296 296 297 298 298 299 299 303 302 299 292 292 288 280 271 281 284 285 285 284 285 283 284 287 286 288 293 294 294 292 291 291 290 289 283 283 283 277 279 270 281 283 284 283 285 285
294 295 295 296 297 297 298 297 303 302 301 292 294 289 279 267 281 281 284 285 284 285 284 285 285 289 292 288 283 275 279 281 282 287 287 287 284 275 273 270 277 282 282 282 283 283 286
294 294 294 295 296 297 297 298 298 302 302 293 292 292 285 275 276 284 284 283 283 283 281 282 287 291 290 286 280 267 264 267 274 280 287 286 287 280 274 268 268 279 285 285 285 279 289
293 293 293 294 295 297 297 298 297 302 302 293 287 293 288 278 281 283 280 282 284 282 284 280 285 285 287 283 278 272 267 273 270 273 279 280 281 279 279 271 276 283 285 286 278 282 288
292 292 293 294 295 296 297 297 296 302 301 294 288 293 289 278 280 284 285 282 282 283 279 281 282 282 284 280 278 272 269 274 271 275 276 278 275 274 279 277 275 286 283 282 286 287 288
292 293 292 295 296 296 297 296 296 302 301 295 288 293 294 286 283 287 284 285 286 287 283 285 282 281 283 277 275 273 273 274 269 268 278 274 279 275 279 279 285 285 286 288 288 288 289
Wind_Speed
15 18 18 18 21 15 16 15 15 14 12 11 9 9 8 7 7 5 5 7 6 7 9 10 9 6 1 1 6 2 3 3 3 3 3 3 3 4 4 3 3 3 3 3 5 4 5
16 16 17 20 20 19 17 16 16 14 13 12 10 9 8 8 7 7 5 7 8 8 7 10 8 6 1 2 1 3 4 3 2 2 2 2 5 4 3 1 4 1 4 7 7 3 4
18 17 17 17 20 21 12 17 16 15 13 13 11 10 8 8 8 7 7 7 7 9 8 8 6 1 1 7 1 2 3 1 2 1 3 1 2 3 2 1 3 3 7 8 3 1 4
16 15 18 15 17 18 18 8 16 15 14 13 11 10 9 8 8 7 7 7 8 8 9 4 2 0 6 1 1 1 1 2 2 1 2 1 0 4 2 1 5 4 3 5 1 3 1
15 15 15 15 16 17 16 16 10 16 15 14 13 11 10 9 8 6 7 7 8 8 4 1 1 1 7 1 0 1 2 3 3 2 3 2 4 3 3 5 5 5 4 3 8 4 1
14 15 16 13 13 15 16 16 16 17 16 13 13 12 11 10 8 5 6 8 5 2 1 1 1 3 1 2 2 2 1 4 3 3 4 5 5 3 3 4 6 4 4 4 5 1 1
15 13 15 14 12 12 16 15 15 13 17 15 13 13 12 10 8 5 2 2 3 2 1 9 4 2 2 2 1 1 1 4 3 4 4 2 2 8 10 6 2 4 1 4 4 1 3
16 14 13 14 16 13 12 14 13 13 13 13 12 15 14 12 9 7 4 3 3 1 5 8 3 3 1 3 3 2 3 4 3 4 5 4 8 3 3 4 4 1 2 6 5 1 2
16 16 15 13 14 14 13 11 12 11 11 12 10 5 15 13 11 5 4 5 2 2 1 6 4 5 4 6 4 8 8 5 3 6 6 6 2 3 6 3 4 3 5 4 5 6 2
18 16 16 13 14 14 13 13 10 11 10 11 10 11 8 15 6 4 4 5 5 3 3 6 3 1 3 5 3 2 3 4 2 9 7 5 2 4 4 4 6 2 4 2 1 3 4
19 17 18 15 15 13 12 13 12 10 9 11 11 10 12 16 6 4 3 6 6 3 3 2 3 1 3 4 4 4 2 2 6 6 6 5 4 3 3 3 6 4 2 2 2 3 3
25 21 19 17 15 14 13 11 12 11 7 10 11 11 12 2 2 2 3 6 3 4 10 2 3 3 6 2 2 2 2 2 3 4 1 1 1 1 2 2 2 6 4 6 4 3 3
25 24 21 19 17 16 14 11 11 10 9 8 11 11 7 2 2 7 4 3 4 5 3 3 4 3 3 5 2 3 5 5 6 5 2 1 2 1 3 5 4 4 5 4 6 4 7
24 24 25 23 20 19 16 14 13 12 10 8 12 14 5 3 4 6 4 3 6 3 5 2 5 4 5 5 3 3 6 5 4 5 3 6 5 7 2 2 5 5 5 7 7 3 4
25 24 26 25 23 22 18 17 13 10 11 10 12 3 3 4 6 4 3 3 8 7 7 8 3 5 3 3 5 4 6 6 8 11 7 5 4 3 3 2 2 5 4 3 7 1 4
27 24 24 25 25 24 20 17 13 10 9 8 2 4 3 8 6 4 2 11 6 4 5 4 8 5 8 6 5 6 7 4 5 10 4 4 2 3 3 1 2 2 2 4 4 2 4
26 26 25 25 25 25 23 21 16 13 10 9 1 4 2 11 2 4 9 8 5 5 3 6 6 5 5 7 7 5 5 2 4 4 4 4 4 3 1 5 7 3 1 2 2 4 6
26 26 27 24 25 26 25 24 21 17 13 8 2 4 4 10 4 3 8 8 6 6 3 2 3 3 5 6 5 6 6 4 1 4 9 7 5 4 5 2 2 1 4 5 4 5 1
24 26 29 25 23 27 26 26 24 22 18 4 3 2 3 3 9 8 3 5 5 5 5 6 3 2 3 5 4 4 5 2 2 5 7 7 2 3 7 3 3 3 4 2 4 3 6
27 25 26 27 21 22 29 27 26 26 22 5 2 4 3 5 4 7 8 8 6 2 5 5 5 5 5 4 3 2 3 1 0 2 3 5 3 6 7 4 4 2 3 4 2 4 4
25 27 26 29 27 26 28 30 29 28 25 6 4 6 4 11 13 8 12 10 10 7 1 6 1 6 8 4 1 4 3 1 2 5 1 5 4 3 3 2 3 5 5 6 7 9 5
26 27 27 27 26 20 24 32 33 30 28 6 5 4 2 1 13 19 14 9 12 6 8 5 7 9 7 7 6 8 7 2 2 2 3 3 2 3 4 2 3 6 8 8 8 5 11
26 26 26 27 27 24 24 34 35 34 25 4 4 3 4 4 6 13 12 9 12 9 1 7 10 7 11 8 5 4 3 5 3 3 2 3 5 3 4 2 4 10 10 16 7 7 8
22 26 24 25 26 22 23 19 39 37 29 5 2 4 4 4 7 15 11 11 9 10 7 1 6 8 5 9 8 6 4 2 3 5 4 3 4 3 3 3 2 8 2 6 11 7 11
23 23 25 24 25 25 23 15 39 38 33 9 4 4 4 2 5 1 10 12 9 6 5 5 1 4 10 6 5 3 3 3 3 4 9 5 3 2 4 3 7 10 2 6 7 1 4
23 24 23 24 25 25 23 23 22 40 35 10 5 3 4 7 6 7 12 6 12 8 3 1 5 3 4 3 3 6 6 5 6 3 9 8 3 4 3 5 8 7 2 2 1 2 5
21 23 21 27 25 26 25 26 28 40 35 13 4 5 3 4 3 5 6 8 6 6 6 4 5 3 2 4 4 4 5 4 6 8 9 8 5 11 8 5 7 8 7 1 5 5 2
20 19 20 26 26 25 18 20 20 41 37 15 4 10 5 3 2 4 5 6 4 5 7 5 4 1 4 5 5 5 4 7 3 6 8 10 9 6 5 6 12 5 1 4 1 3 2
22 20 16 24 25 22 20 18 18 38 37 17 7 8 5 3 1 1 1 1 2 7 7 7 2 5 6 4 2 3 2 2 4 4 2 3 7 7 9 7 4 3 3 1 2 2 4
Wind_Direction
352 353 354 349 343 240 212 210 216 220 218 218 215 225 230 243 263 269 288 300 317 321 329 325 325 330 30 310 257 135 107 96 104 124 161 143 137 135 178 186 158 216 266 224 275 279 238
347 350 347 351 352 337 216 214 213 212 217 215 210 216 224 236 246 269 279 296 311 313 327 321 321 322 155 257 355 118 109 99 113 128 148 130 179 179 145 183 175 282 280 275 281 249 237
329 344 341 347 352 352 252 216 213 208 211 215 210 207 218 230 243 255 278 292 303 312 322 317 309 340 85 232 39 81 116 93 156 148 139 160 127 108 119 352 335 329 324 319 233 247 231
310 323 333 348 346 352 357 290 210 211 210 210 211 210 212 225 242 254 268 284 299 307 317 313 310 335 247 349 189 101 117 71 68 53 89 85 68 102 98 151 14 358 54 350 339 144 13
307 315 319 343 350 350 354 353 354 208 212 205 209 210 214 219 233 249 277 288 289 302 314 325 30 82 272 26 201 162 133 141 101 55 37 70 68 80 31 93 6 3 255 226 316 203 109
297 299 299 322 332 343 348 348 2 2 208 205 207 210 210 217 220 235 278 294 286 8 45 37 37 7 246 222 138 113 53 123 110 95 54 53 51 83 34 105 220 221 238 241 264 275 185
294 302 300 295 309 326 334 340 347 1 2 210 206 210 206 207 207 210 53 56 45 330 254 193 197 233 130 109 86 45 137 110 100 72 145 19 116 210 202 197 61 107 203 282 277 288 279
282 280 278 296 306 301 314 332 341 345 352 352 219 212 204 196 190 165 120 191 216 167 300 225 213 275 197 207 111 191 124 136 149 159 123 55 238 197 154 168 215 232 309 278 273 285 245
267 275 278 283 289 292 287 311 333 334 346 342 338 268 199 184 158 150 192 210 150 158 212 282 186 167 197 150 225 199 145 149 154 141 181 165 205 72 151 144 155 210 199 218 237 319 235
252 256 266 261 273 281 287 292 313 327 338 333 347 346 274 151 140 162 211 192 162 118 46 250 211 207 115 156 224 6 206 144 151 191 162 241 286 161 164 192 144 249 223 212 97 41 265
244 252 261 255 258 270 277 275 294 315 326 334 339 344 329 152 133 178 190 146 140 95 270 112 154 165 117 159 130 355 165 46 164 166 130 236 160 161 152 199 169 226 40 106 88 110 2
250 237 241 246 248 253 258 260 267 284 307 330 338 340 337 74 94 289 139 131 107 70 244 139 115 150 113 61 64 128 144 52 120 109 28 256 294 99 131 71 46 143 75 39 45 73 33
257 242 234 220 240 239 247 248 258 277 292 319 326 327 316 168 194 147 248 123 82 204 317 214 161 164 128 150 123 142 162 175 165 115 227 313 198 132 145 87 32 78 74 329 353 10 215
260 247 237 226 219 231 238 232 240 259 279 293 317 317 272 206 146 161 107 60 174 225 221 141 111 105 177 153 188 151 139 185 222 94 108 159 285 174 159 173 172 179 160 163 210 205 255
262 257 243 234 226 217 216 229 229 238 270 276 317 268 225 174 146 142 145 199 203 191 163 147 88 113 235 203 147 159 195 202 200 168 172 132 278 331 54 40 87 195 189 162 101 48 48
265 257 252 240 224 218 207 215 212 215 251 268 332 274 216 142 152 113 128 218 210 176 137 137 176 152 174 194 150 183 182 207 214 188 135 192 25 353 330 180 43 158 152 77 352 184 257
272 265 256 245 228 213 207 196 197 200 221 229 198 236 129 134 126 150 204 212 188 208 165 157 191 146 179 173 163 188 197 261 208 134 134 133 125 328 334 219 177 141 252 69 144 155 173
263 278 263 246 237 212 208 197 187 190 205 198 240 208 161 146 169 201 209 175 181 162 160 134 130 123 163 154 151 189 204 245 346 160 154 183 125 164 201 279 332 9 187 168 136 252 266
259 258 270 260 245 215 207 196 187 179 192 133 235 145 223 208 202 208 161 165 194 144 159 159 148 112 26 144 123 203 185 126 253 167 160 181 223 56 348 5 358 219 200 197 104 80 204
266 258 259 260 258 255 203 196 187 178 187 165 181 164 239 201 217 173 171 183 192 279 149 131 146 94 71 32 18 75 201 126 281 158 170 101 105 158 182 170 142 177 221 196 149 128 191
259 261 252 252 252 239 213 195 185 181 180 156 194 225 203 205 194 205 173 163 163 184 224 127 236 171 144 149 128 196 285 129 85 345 46 131 189 137 266 218 188 212 197 171 183 223 221
255 253 251 245 250 254 258 189 185 179 174 183 172 172 133 338 178 196 194 185 180 190 153 208 146 160 151 154 179 195 170 180 157 30 79 26 159 95 324 355 228 254 225 210 211 214 248
254 253 245 248 247 235 245 202 186 180 164 161 161 210 141 203 187 185 188 175 190 152 329 173 157 143 187 184 161 87 54 101 109 87 114 117 133 86 277 7 340 300 211 214 194 200 197
247 255 247 247 248 245 230 279 184 183 181 121 130 120 119 210 190 205 193 186 173 188 155 182 132 131 180 114 81 38 63 133 184 168 111 142 128 117 206 85 228 246 208 189 210 252 228
245 249 245 244 250 239 239 239 194 185 182 164 152 150 135 167 191 273 178 183 139 167 143 128 159 168 152 86 87 62 25 6 274 228 173 162 122 134 152 211 299 305 205 174 165 258 234
244 246 247 253 246 239 234 222 266 184 182 168 150 116 114 122 235 144 179 166 186 159 90 86 22 106 75 105 131 156 189 190 202 206 186 175 128 146 152 172 210 241 257 229 191 46 341
243 246 256 254 249 238 233 220 276 184 179 160 144 122 118 125 252 136 155 168 129 134 166 127 146 82 57 158 149 165 222 183 168 176 176 185 184 210 206 227 284 257 266 254 74 217 17
247 241 250 255 243 239 230 209 255 180 174 158 137 162 123 139 278 177 156 134 112 157 161 158 105 218 139 188 171 189 149 212 130 186 183 172 169 190 203 227 244 242 308 193 196 341 314
237 240 252 258 234 229 219 213 252 181 171 146 136 157 133 72 141 46 322 339 110 167 128 184 171 150 171 141 156 101 151 163 159 215 253 226 181 179 179 204 233 195 115 21 225 243 10